When you browse on this site, cookies collect data to enhance your experience and personalize the content and advertising you see.
Visit our Privacy Policy to learn more. By continuing to use the site, you agree to this use of cookies and data.
  • en Suisse
  • Liste des pays
  • À 7 jours
  • Température de l'eau
  • Carte satellitaire
  • Carte météo
  • Widgets météo
  • user-avatar
    Se connecter

    Météo par heure à Sarajevo

    Ce jour, 18 Novembre, Dimanche

    Heure Température Précipitation Vent Pression Humidité
    00:00 -3°C° 0 mm 2 m/s 690 mmHg 85%
    01:00 -2°C° 0 mm 2 m/s 690 mmHg 83%
    02:00 -2°C° 0 mm 2 m/s 690 mmHg 82%
    03:00 -2°C° 0 mm 2 m/s 689 mmHg 81%
    04:00 -2°C° 0 mm 2 m/s 689 mmHg 80%
    05:00 -3°C° 0 mm 2 m/s 689 mmHg 81%
    06:00 -3°C° 0 mm 2 m/s 689 mmHg 82%
    07:00 -4°C° 0 mm 3 m/s 689 mmHg 81%
    08:00 -1°C° 0 mm 3 m/s 688 mmHg 75%
    09:00 0°C° 0 mm 3 m/s 688 mmHg 68%
    10:00 +1°C° 0 mm 3 m/s 688 mmHg 62%
    11:00 +2°C° 0 mm 3 m/s 688 mmHg 60%
    12:00 +3°C° 0 mm 3 m/s 688 mmHg 58%
    13:00 +5°C° 0 mm 2 m/s 687 mmHg 56%
    14:00 +4°C° 0 mm 2 m/s 687 mmHg 60%
    15:00 +3°C° 0 mm 2 m/s 686 mmHg 65%
    16:00 +2°C° 0 mm 2 m/s 685 mmHg 70%
    17:00 +1°C° 0 mm 2 m/s 685 mmHg 74%
    18:00 -1°C° 0 mm 2 m/s 685 mmHg 78%
    19:00 -1°C° 0 mm 2 m/s 684 mmHg 82%
    20:00 -1°C° 0 mm 2 m/s 684 mmHg 81%
    21:00 -1°C° 0 mm 2 m/s 684 mmHg 81%
    22:00 -1°C° 0 mm 2 m/s 684 mmHg 81%
    23:00 -1°C° 0.2 mm 2 m/s 684 mmHg 82%

    Demain, 19 Novembre, Lundi

    Heure Température Précipitation Vent Pression Humidité
    00:00 +1°C° 0.2 mm 1 m/s 683 mmHg 82%
    01:00 +1°C° 0.2 mm 1 m/s 683 mmHg 83%
    02:00 0°C° 0 mm 1 m/s 683 mmHg 85%
    03:00 0°C° 0 mm 1 m/s 683 mmHg 86%
    04:00 -1°C° 0 mm 1 m/s 683 mmHg 88%
    05:00 -1°C° 0 mm 1 m/s 683 mmHg 88%
    06:00 -1°C° 0 mm 1 m/s 683 mmHg 88%
    07:00 -1°C° 0 mm 1 m/s 683 mmHg 88%
    08:00 +1°C° 0 mm 1 m/s 683 mmHg 78%
    09:00 +4°C° 0 mm 1 m/s 684 mmHg 68%
    10:00 +6°C° 0 mm 1 m/s 685 mmHg 57%
    11:00 +7°C° 0 mm 1 m/s 685 mmHg 57%
    12:00 +7°C° 0 mm 1 m/s 685 mmHg 56%
    13:00 +8°C° 0 mm 1 m/s 685 mmHg 55%
    14:00 +7°C° 0.1 mm 1 m/s 684 mmHg 62%
    15:00 +6°C° 0.1 mm 1 m/s 684 mmHg 68%
    16:00 +5°C° 0.1 mm 1 m/s 684 mmHg 75%
    17:00 +5°C° 0.5 mm 1 m/s 684 mmHg 78%
    18:00 +3°C° 0.5 mm 2 m/s 684 mmHg 81%
    19:00 +3°C° 0.5 mm 2 m/s 683 mmHg 84%
    20:00 +3°C° 1.3 mm 2 m/s 683 mmHg 86%
    21:00 +3°C° 1.3 mm 2 m/s 683 mmHg 88%
    22:00 +3°C° 1.3 mm 2 m/s 682 mmHg 90%
    23:00 +3°C° 1 mm 2 m/s 682 mmHg 90%

    Après-demain, 20 Novembre, Mardi

    Heure Température Précipitation Vent Pression Humidité
    00:00 +3°C° 1 mm 3 m/s 682 mmHg 91%
    01:00 +3°C° 1 mm 3 m/s 681 mmHg 92%
    02:00 +4°C° 1 mm 3 m/s 681 mmHg 93%
    03:00 +4°C° 1 mm 3 m/s 681 mmHg 94%
    04:00 +5°C° 1 mm 4 m/s 680 mmHg 95%
    05:00 +5°C° 3.6 mm 4 m/s 680 mmHg 95%
    06:00 +6°C° 3.6 mm 4 m/s 680 mmHg 95%
    07:00 +6°C° 3.6 mm 4 m/s 680 mmHg 96%
    08:00 +7°C° 3.8 mm 4 m/s 680 mmHg 95%
    09:00 +7°C° 3.8 mm 4 m/s 680 mmHg 94%
    10:00 +8°C° 3.8 mm 4 m/s 681 mmHg 93%
    11:00 +8°C° 1.6 mm 5 m/s 681 mmHg 91%
    12:00 +9°C° 1.6 mm 5 m/s 681 mmHg 90%
    13:00 +9°C° 1.6 mm 5 m/s 681 mmHg 88%
    14:00 +10°C° 0.5 mm 4 m/s 681 mmHg 90%
    15:00 +9°C° 0.5 mm 3 m/s 681 mmHg 92%
    16:00 +9°C° 0.5 mm 3 m/s 681 mmHg 93%
    17:00 +8°C° 0.2 mm 2 m/s 681 mmHg 94%
    18:00 +8°C° 0.2 mm 2 m/s 682 mmHg 95%
    19:00 +8°C° 0.2 mm 2 m/s 682 mmHg 96%
    20:00 +7°C° 0.1 mm 2 m/s 682 mmHg 96%
    21:00 +7°C° 0.1 mm 2 m/s 683 mmHg 96%
    22:00 +7°C° 0.1 mm 2 m/s 683 mmHg 96%
    23:00 +7°C° 0 mm 2 m/s 683 mmHg 96%

    21 Novembre, Mercredi

    Heure Température Précipitation Vent Pression Humidité
    00:00 +8°C° 0 mm 1 m/s 683 mmHg 95%
    01:00 +8°C° 0 mm 1 m/s 683 mmHg 95%
    02:00 +8°C° 0.1 mm 1 m/s 683 mmHg 94%
    03:00 +8°C° 0.1 mm 1 m/s 683 mmHg 94%
    04:00 +8°C° 0.1 mm 1 m/s 682 mmHg 93%
    05:00 +8°C° 0.1 mm 1 m/s 683 mmHg 93%
    06:00 +8°C° 0.1 mm 1 m/s 683 mmHg 93%
    07:00 +7°C° 0.1 mm 1 m/s 683 mmHg 94%
    08:00 +8°C° 0.1 mm 1 m/s 684 mmHg 92%
    09:00 +9°C° 0.1 mm 1 m/s 684 mmHg 90%
    10:00 +10°C° 0.1 mm 1 m/s 685 mmHg 88%
    11:00 +11°C° 0.1 mm 1 m/s 685 mmHg 87%
    12:00 +11°C° 0.1 mm 1 m/s 685 mmHg 86%
    13:00 +11°C° 0.1 mm 1 m/s 685 mmHg 85%
    14:00 +11°C° 0.1 mm 1 m/s 685 mmHg 88%
    15:00 +10°C° 0.1 mm 1 m/s 685 mmHg 90%
    16:00 +9°C° 0.1 mm 1 m/s 686 mmHg 93%
    17:00 +9°C° 0 mm 1 m/s 686 mmHg 93%
    18:00 +8°C° 0 mm 1 m/s 686 mmHg 94%
    19:00 +8°C° 0 mm 1 m/s 686 mmHg 95%
    20:00 +8°C° 0 mm 1 m/s 687 mmHg 95%
    21:00 +7°C° 0 mm 0 m/s 687 mmHg 95%
    22:00 +6°C° 0 mm 0 m/s 687 mmHg 94%
    23:00 +6°C° 0 mm 0 m/s 687 mmHg 94%

    22 Novembre, Jeudi

    Heure Température Précipitation Vent Pression Humidité
    00:00 +6°C° 0 mm 0 m/s 687 mmHg 94%
    01:00 +5°C° 0 mm 0 m/s 687 mmHg 94%
    02:00 +5°C° 0 mm 0 m/s 687 mmHg 94%
    03:00 +5°C° 0 mm 0 m/s 687 mmHg 93%
    04:00 +6°C° 0 mm 1 m/s 687 mmHg 93%
    05:00 +6°C° 0 mm 1 m/s 687 mmHg 93%
    06:00 +6°C° 0 mm 1 m/s 688 mmHg 92%
    07:00 +6°C° 0 mm 1 m/s 688 mmHg 92%
    08:00 +6°C° 0 mm 0 m/s 688 mmHg 88%
    09:00 +8°C° 0 mm 0 m/s 689 mmHg 84%
    10:00 +9°C° 0 mm 0 m/s 689 mmHg 80%
    11:00 +10°C° 0 mm 0 m/s 689 mmHg 77%
    12:00 +11°C° 0 mm 0 m/s 690 mmHg 75%
    13:00 +12°C° 0 mm 0 m/s 690 mmHg 72%
    14:00 +11°C° 0.1 mm 0 m/s 690 mmHg 77%
    15:00 +10°C° 0.1 mm 0 m/s 690 mmHg 82%
    16:00 +8°C° 0.1 mm 0 m/s 690 mmHg 87%
    17:00 +8°C° 0.1 mm 0 m/s 690 mmHg 89%
    18:00 +7°C° 0.1 mm 0 m/s 690 mmHg 90%
    19:00 +7°C° 0.1 mm 0 m/s 691 mmHg 92%
    20:00 +6°C° 0 mm 0 m/s 691 mmHg 92%
    21:00 +6°C° 0 mm 0 m/s 691 mmHg 92%
    22:00 +6°C° 0 mm 0 m/s 691 mmHg 92%
    23:00 +5°C° 0 mm 0 m/s 691 mmHg 92%

    23 Novembre, Vendredi

    Heure Température Précipitation Vent Pression Humidité
    00:00 +5°C° 0 mm 0 m/s 691 mmHg 91%
    01:00 +6°C° 0 mm 1 m/s 692 mmHg 91%
    02:00 +6°C° 0 mm 1 m/s 692 mmHg 91%
    03:00 +6°C° 0 mm 1 m/s 692 mmHg 91%
    04:00 +5°C° 0 mm 1 m/s 692 mmHg 91%
    05:00 +5°C° 0 mm 1 m/s 692 mmHg 91%
    06:00 +5°C° 0 mm 1 m/s 693 mmHg 91%
    07:00 +5°C° 0 mm 1 m/s 693 mmHg 91%
    08:00 +7°C° 0 mm 1 m/s 693 mmHg 85%
    09:00 +9°C° 0 mm 1 m/s 694 mmHg 80%
    10:00 +10°C° 0 mm 0 m/s 694 mmHg 75%
    11:00 +10°C° 0 mm 0 m/s 694 mmHg 71%
    12:00 +11°C° 0 mm 0 m/s 694 mmHg 68%
    13:00 +12°C° 0 mm 0 m/s 694 mmHg 65%
    14:00 +11°C° 0 mm 0 m/s 694 mmHg 71%
    15:00 +9°C° 0 mm 0 m/s 694 mmHg 76%
    16:00 +8°C° 0 mm 0 m/s 694 mmHg 82%
    17:00 +7°C° 0 mm 0 m/s 694 mmHg 84%
    18:00 +7°C° 0 mm 0 m/s 694 mmHg 86%
    19:00 +6°C° 0 mm 0 m/s 694 mmHg 88%
    20:00 +7°C° 0 mm 1 m/s 694 mmHg 88%
    21:00 +7°C° 0 mm 1 m/s 694 mmHg 89%
    22:00 +6°C° 0 mm 1 m/s 694 mmHg 89%
    23:00 +6°C° 0 mm 1 m/s 693 mmHg 89%
    Voir plus